Regional Weather Roundup
Issued by NWS Albany, NY

Home | Current Version | Previous Version | Text Only | Print | Product List | Glossary On
Versions: 1 2 3 4 5 6 7 8 9 10 11 12 13 14 15 16 17 18 19 20 21 22 23 24 25 26 27 28
000
ASUS41 KALY 191310
RWRALY

NEW YORK STATE HOURLY WEATHER ROUNDUP
NATIONAL WEATHER SERVICE ALBANY NY
900 AM EDT SAT MAY 19 2018

NOTE: "FAIR" INDICATES FEW OR NO CLOUDS BELOW 12,000 FEET WITH NO
SIGNIFICANT WEATHER AND/OR NO OBSTRUCTIONS TO VISIBILITY.

NYZ032-033-038>043-046>054-057>066-NYZ062>081-082-084-191400-
EAST


CITY           SKY/WX    TMP DP  RH WIND       PRES   REMARKS
ALBANY         CLOUDY    56  27  32 VRB3      30.33F
GLENS FALLS    FAIR      55  41  59 CALM      30.32F
POUGHKEEPSIE   LGT RAIN  48  44  86 N6        30.33F
NEWBURGH       LGT RAIN  46  46 100 NE8       30.33F FOG
MONTGOMERY     RAIN      46  44  93 N8        30.33S FOG
WHITE PLAINS   LGT RAIN  48  47  96 E13G21    30.31S FOG
ISLIP          LGT RAIN  51  51 100 E9        30.32F FOG
NEW YORK CITY  LGT RAIN  52  49  89 NE12      30.31F FOG
CENTRAL PARK   LGT RAIN  51  49  92 E8        30.33F FOG
$$

NYZ005>009-017-018-044>046-055-056-191400-
CENTRAL


CITY           SKY/WX    TMP DP  RH WIND       PRES   REMARKS
FULTON         LGT RAIN  51  47  86 SE9       30.17F FOG
SYRACUSE       RAIN      49  49 100 E12       30.18F FOG
ROME           RAIN      49  42  77 SE12      30.25F
ELMIRA         LGT RAIN  52  50  93 VRB5      30.17F
BINGHAMTON     LGT RAIN  46  45  96 SE17G23   30.18F
$$

NYZ026>034-041>043-087-191400-
NORTH


CITY           SKY/WX    TMP DP  RH WIND       PRES   REMARKS
WATERTOWN      PTSUNNY   63  49  60 E5        30.16F
FORT DRUM      NOT AVBL
OGDENSBURG     FAIR      61  42  49 E3        30.20F
MASSENA        FAIR      56  39  53 NE6       30.23F
SARANAC LAKE   FAIR      56  35  45 S5        30.24F
PLATTSBURGH    FAIR      55  40  56 MISG      30.28F
$$

NYZ001>004-010>016-019>021-085-191400-
WEST


CITY           SKY/WX    TMP DP  RH WIND       PRES   REMARKS
NIAGARA FALLS  LGT RAIN  61  57  87 SE6       30.03F FOG
BUFFALO        LGT RAIN  65  57  75 S7        30.04F
DUNKIRK        CLOUDY    62  56  80 S8G21     30.01F
JAMESTOWN      CLOUDY    54  52  93 S15       30.07F
WELLSVILLE     LGT RAIN  53  52  96 S13G20    30.13F
ROCHESTER      LGT RAIN  55  54  96 SE13      30.09F
PENN YAN       LGT RAIN  53  49  86 S7        30.15F FOG
$$

             KEY
       WCI = WIND CHILL INDEX
       VSB = VISIBILITY
       HX  = HEAT INDEX
$$




USA.gov is the U.S. government's official web portal to all federal, state and local government web resources and services.